Location: Newark
(54.4333°N, 18.5500°E)
Time: 00:31:45
(UTC+00:00)

Envisat - Pass Details

Date: 17 December 2019
Orbit: 764 x 766 km, 98.1° (Epoch: 27 January)

Event Time Altitude Azimuth Distance (km) Brightness Sun altitude
Rises 16:37:55 0° 170° (S) 3,224 6.3 -18.3°
Reaches altitude 10° 16:40:13 10° 173° (S) 2,302 5.6 -18.6°
Maximum altitude 16:45:17 70° 257° (WSW) 821 3.3 -19.3°
Drops below altitude 10° 16:50:23 10° 341° (NNW) 2,318 5.6 -20.0°
Sets 16:52:43 0° 344° (NNW) 3,249 6.3 -20.4°
